[[{"header":{"parameterUnit":"m.s-1","parameterCategory":1,"la1":30.2991,"la2":30.254,"lo1":-89.0895,"lo2":-89.0444,"dy":0.0017,"dx":0.0017,"nx":28,"ny":28,"refTime":"2024-03-12T09:00:00:Z","depth":0,"parameterNumber":2,"parameterNumberName":"U-component_of_WINDS"},"data":[0,0,0,0,0,0,0,0,0,0,0,0,0,0,0,0,0,0,0,0,0,0,0,0,0,0,0,0,0,0,0,0,0,0,0,0,0,0,0,0,0,0,0,0,0,0,0,0,0,0,0,0,0,0,0,0,0,0,-1.0203,-1.0204,0,-1.028,-1.0281,-1.0282,-1.0298,-1.0298,-1.0297,-1.0297,-1.0377,-1.038,-1.0382,0,0,0,0,0,0,0,0,0,0,0,0,0,-1.007,-1.0072,-1.0203,-1.0204,-1.0205,-1.028,-1.0281,-1.0282,-1.0298,-1.0298,-1.0297,-1.0296,-1.0376,-1.0379,-1.0382,0,0,0,0,0,0,0,0,0,0,0,0,0,-1.0136,-1.0073,-1.0203,-1.0222,-1.0224,-1.028,-1.0281,-1.0282,-1.0299,-1.0298,-1.0297,-1.0296,-1.0375,-1.0379,-1.0383,-1.0425,0,0,-1.0395,-1.0397,0,0,0,0,0,0,0,0,-1.0132,-1.014,-1.0218,-1.0221,-1.0224,-1.0279,-1.0264,-1.033,-1.0299,-1.027,-1.0297,-1.0296,-1.0345,-1.0351,-1.0368,-1.0429,-1.0432,-1.0396,-1.0398,-1.04,-1.0401,0,0,0,0,0,0,0,-1.0127,-1.0137,-1.0233,-1.0219,-1.0223,-1.0227,-1.0235,-1.0276,-1.0312,-1.0273,-1.0274,-1.0283,-1.0346,-1.0364,-1.037,-1.0433,-1.0395,-1.0399,-1.0402,-1.0403,-1.0532,-1.0533,0,0,0,0,0,0,-1.0119,-1.0133,-1.0231,-1.0236,-1.0175,-1.023,-1.0239,-1.0262,-1.0311,-1.0318,-1.0284,-1.0284,-1.0358,-1.0365,-1.0373,-1.0425,-1.04,-1.0403,-1.0406,-1.0531,-1.0533,-1.0534,0,0,0,0,0,0,-1.0116,-1.0128,-1.0228,-1.0185,-1.0198,-1.0233,-1.0258,-1.0264,-1.0281,-1.032,-1.0326,-1.0295,-1.0357,-1.0367,-1.0412,-1.0428,-1.0405,-1.0409,-1.053,-1.0532,-1.0533,-1.053,0,0,0,0,0,0,-1.0112,-1.0127,-1.0143,-1.0185,-1.02,-1.0265,-1.0259,-1.0266,-1.0288,-1.0289,-1.0332,-1.0338,-1.0357,-1.0406,-1.0416,-1.0433,-1.0412,-1.0529,-1.0531,-1.0533,-1.0529,-1.0531,-1.0533,0,0,0,0,0,-1.0108,-1.0139,-1.0143,-1.0155,-1.0221,-1.0266,-1.0275,-1.0296,-1.0289,-1.0306,-1.0331,-1.0337,-1.0425,-1.041,-1.0422,-1.044,-1.0528,-1.053,-1.0533,-1.0528,-1.0531,-1.0533,0,0,0,0,0,0,-1.0098,-1.0145,-1.015,-1.0196,-1.0227,-1.0269,-1.029,-1.0298,-1.0332,-1.0331,-1.0355,-1.0365,-1.0408,-1.0429,-1.0412,-1.0484,-1.0476,-1.0481,-1.0468,-1.0472,-1.0474,-1.0468,-1.0415,0,0,0,0,0,-1.0101,-1.0134,-1.0173,-1.021,-1.0225,-1.0255,-1.0275,-1.0289,-1.0322,-1.0335,-1.0363,-1.0394,-1.0429,-1.0452,-1.0486,-1.0532,-1.0541,-1.0551,-1.0553,-1.0554,-1.0558,-1.0584,-1.0588,-1.0541,-1.0541,-1.0541,0,0,-1.0108,-1.0138,-1.0157,-1.0209,-1.0234,-1.0267,-1.0266,-1.0301,-1.0326,-1.034,-1.0384,-1.0405,-1.0443,-1.0488,-1.0509,-1.0507,-1.0573,-1.0557,-1.0558,-1.0561,-1.0586,-1.0591,-1.0595,-1.0543,-1.0543,-1.0542,0,0,-1.0138,-1.0164,-1.0197,-1.0222,-1.026,-1.028,-1.0288,-1.0329,-1.0343,-1.0387,-1.0399,-1.0429,-1.0488,-1.0514,-1.0535,-1.0575,-1.0582,-1.0585,-1.0597,-1.0621,-1.0625,-1.0628,-1.0642,-1.0646,-1.0589,-1.0589,-1.0589,0,-1.0142,-1.0192,-1.0213,-1.0248,-1.027,-1.0284,-1.0318,-1.0342,-1.0389,-1.0405,-1.0401,-1.0475,-1.0502,-1.0553,-1.0562,-1.0579,-1.0589,-1.058,-1.0622,-1.0626,-1.063,-1.0643,-1.0648,-1.0589,-1.0589,-1.0589,-1.0589,0,-1.0195,-1.0229,-1.0251,-1.0296,-1.0321,-1.0355,-1.0382,-1.0405,-1.0416,-1.0436,-1.0481,-1.0513,-1.0553,-1.0567,-1.0578,-1.062,-1.0617,-1.0617,-1.061,-1.0634,-1.0646,-1.0652,-1.0589,-1.0589,-1.0589,-1.0589,0,0,-1.022,-1.0276,-1.0284,-1.0304,-1.0348,-1.0375,-1.041,-1.0449,-1.0468,-1.05,-1.053,-1.0579,-1.058,-1.0604,-1.0619,-1.064,-1.0669,-1.0639,-1.064,-1.0642,-1.0716,-1.0714,-1.072,-1.0674,-1.0675,-1.0676,-1.0712,0,-1.0255,-1.0317,-1.0337,-1.0388,-1.042,-1.0434,-1.0465,-1.0494,-1.0514,-1.0544,-1.0567,-1.0601,-1.06,-1.0614,-1.0636,-1.066,-1.0684,-1.0658,-1.0701,-1.0703,-1.0691,-1.0727,-1.0726,-1.0759,-1.0718,-1.0719,-1.0719,0,-1.0303,-1.0335,-1.039,-1.0429,-1.0443,-1.047,-1.0507,-1.0536,-1.057,-1.0583,-1.0609,-1.0622,-1.0659,-1.065,-1.0701,-1.0683,-1.0702,-1.0717,-1.0719,-1.0723,-1.0712,-1.0732,-1.077,-1.0775,-1.0727,-1.0727,-1.0726,0,-1.0315,-1.0373,-1.0413,-1.043,-1.0476,-1.0495,-1.0515,-1.0548,-1.057,-1.0603,-1.0618,-1.0655,-1.0675,-1.0703,-1.0726,-1.0717,-1.0775,-1.0768,-1.0786,-1.0786,-1.0797,-1.0796,-1.0839,-1.0811,-1.081,-1.081,-1.081,0,-1.0351,-1.0384,-1.0419,-1.0443,-1.0481,-1.0504,-1.054,-1.0561,-1.059,-1.0619,-1.0634,-1.0661,-1.0689,-1.072,-1.0738,-1.0777,-1.0786,-1.0798,-1.0802,-1.0796,-1.0795,-1.0809,-1.0807,-1.0812,-1.0811,-1.0811,-1.0811,0,-1.0371,-1.0396,-1.0441,-1.0481,-1.0491,-1.0517,-1.0551,-1.0576,-1.0596,-1.0632,-1.0642,-1.0674,-1.0711,-1.0737,-1.0784,-1.0796,-1.0838,-1.0843,-1.0827,-1.0829,-1.0846,-1.0843,-1.0898,-1.0906,-1.0873,-1.0873,-1.0873,0,-1.0393,-1.0418,-1.046,-1.0481,-1.0501,-1.0533,-1.0556,-1.058,-1.0602,-1.0643,-1.0662,-1.07,-1.0732,-1.079,-1.0817,-1.0854,-1.0859,-1.0875,-1.0864,-1.0857,-1.0858,-1.0856,-1.0859,-1.0877,-1.0877,-1.0877,-1.0877,0,-1.0427,-1.0438,-1.047,-1.0506,-1.0532,-1.0562,-1.0591,-1.0607,-1.0636,-1.0661,-1.0699,-1.0723,-1.0771,-1.0808,-1.0847,-1.0868,-1.0878,-1.0881,-1.0887,-1.0881,-1.087,-1.0875,-1.0831,-1.0879,-1.0879,-1.0879,-1.0879,-1.0879,-1.0448,-1.0471,-1.0504,-1.0539,-1.0564,-1.0591,-1.0616,-1.0639,-1.0671,-1.0711,-1.0724,-1.0762,-1.0796,-1.0849,-1.0871,-1.0901,-1.09,-1.0909,-1.0911,-1.0913,-1.0913,-1.0866,-1.0909,-1.0909,-1.0909,-1.0909,-1.0909,0,-1.0483,-1.0505,-1.0537,-1.0577,-1.0605,-1.0611,-1.0644,-1.0667,-1.07,-1.0731,-1.0761,-1.0804,-1.084,-1.087,-1.0908,-1.0926,-1.0932,-1.0935,-1.0934,-1.0939,-1.0912,-1.0903,-1.093,-1.093,-1.093,-1.093,-1.093,-1.093,-1.0504,-1.0543,-1.0558,-1.0609,-1.0631,-1.0669,-1.0687,-1.0713,-1.0737,-1.0784,-1.0814,-1.0833,-1.0863,-1.0903,-1.0936,-1.0944,-1.0957,-1.096,-1.0969,-1.0943,-1.0941,-1.0938,-1.0929,-1.0962,-1.0962,-1.0993,-1.0993,-1.0993]},{"header":{"parameterUnit":"m.s-1","parameterCategory":1,"la1":30.2991,"la2":30.254,"lo1":-89.0895,"lo2":-89.0444,"dy":0.0017,"dx":0.0017,"nx":28,"ny":28,"refTime":"2024-03-12T09:00:00:Z","depth":0,"parameterNumber":3,"parameterNumberName":"V-component_of_WINDS"},"data":[0,0,0,0,0,0,0,0,0,0,0,0,0,0,0,0,0,0,0,0,0,0,0,0,0,0,0,0,0,0,0,0,0,0,0,0,0,0,0,0,0,0,0,0,0,0,0,0,0,0,0,0,0,0,0,0,0,0,-1.8717,-1.8717,0,-1.8797,-1.8798,-1.8799,-1.8816,-1.8815,-1.8815,-1.8814,-1.8897,-1.89,-1.8902,0,0,0,0,0,0,0,0,0,0,0,0,0,-1.8578,-1.858,-1.8717,-1.8718,-1.8719,-1.8797,-1.8798,-1.8799,-1.8816,-1.8815,-1.8814,-1.8814,-1.8896,-1.8899,-1.8903,0,0,0,0,0,0,0,0,0,0,0,0,0,-1.8646,-1.8581,-1.8716,-1.8736,-1.8739,-1.8797,-1.8798,-1.8799,-1.8816,-1.8815,-1.8814,-1.8813,-1.8895,-1.8899,-1.8903,-1.8947,0,0,-1.8916,-1.8918,0,0,0,0,0,0,0,0,-1.8642,-1.8651,-1.8732,-1.8735,-1.8738,-1.8795,-1.878,-1.8849,-1.8816,-1.8787,-1.8814,-1.8813,-1.8864,-1.8871,-1.8888,-1.8951,-1.8954,-1.8916,-1.8919,-1.892,-1.8922,0,0,0,0,0,0,0,-1.8638,-1.8648,-1.8748,-1.8734,-1.8737,-1.8741,-1.875,-1.8793,-1.8829,-1.8789,-1.8791,-1.88,-1.8865,-1.8884,-1.889,-1.8956,-1.8916,-1.892,-1.8922,-1.8924,-1.9058,-1.9059,0,0,0,0,0,0,-1.8629,-1.8644,-1.8746,-1.8751,-1.8687,-1.8745,-1.8754,-1.8778,-1.8829,-1.8836,-1.8801,-1.88,-1.8877,-1.8885,-1.8893,-1.8947,-1.892,-1.8924,-1.8927,-1.9057,-1.9059,-1.906,0,0,0,0,0,0,-1.8626,-1.8638,-1.8743,-1.8698,-1.8711,-1.8748,-1.8774,-1.878,-1.8798,-1.8838,-1.8844,-1.8813,-1.8877,-1.8887,-1.8933,-1.895,-1.8926,-1.893,-1.9056,-1.9058,-1.9059,-1.9056,0,0,0,0,0,0,-1.8622,-1.8637,-1.8654,-1.8698,-1.8714,-1.8781,-1.8775,-1.8782,-1.8805,-1.8806,-1.8851,-1.8857,-1.8877,-1.8927,-1.8937,-1.8955,-1.8933,-1.9055,-1.9057,-1.9059,-1.9054,-1.9057,-1.9059,0,0,0,0,0,-1.8617,-1.865,-1.8655,-1.8667,-1.8736,-1.8782,-1.8791,-1.8813,-1.8807,-1.8824,-1.8849,-1.8856,-1.8947,-1.8931,-1.8943,-1.8963,-1.9054,-1.9056,-1.9058,-1.9053,-1.9056,-1.9059,0,0,0,0,0,0,-1.8607,-1.8656,-1.8662,-1.871,-1.8742,-1.8785,-1.8808,-1.8816,-1.885,-1.8849,-1.8875,-1.8885,-1.893,-1.8951,-1.8933,-1.9008,-1.9,-1.9005,-1.8992,-1.8995,-1.8997,-1.8991,-1.8937,0,0,0,0,0,-1.861,-1.8644,-1.8685,-1.8724,-1.8739,-1.8771,-1.8792,-1.8806,-1.884,-1.8854,-1.8882,-1.8916,-1.8952,-1.8975,-1.901,-1.9058,-1.9068,-1.9077,-1.908,-1.9081,-1.9085,-1.9111,-1.9116,-1.9068,-1.9068,-1.9068,0,0,-1.8617,-1.8648,-1.8668,-1.8722,-1.8749,-1.8783,-1.8782,-1.8819,-1.8844,-1.8859,-1.8904,-1.8927,-1.8966,-1.9012,-1.9035,-1.9032,-1.9101,-1.9084,-1.9085,-1.9088,-1.9114,-1.9119,-1.9123,-1.9069,-1.9069,-1.9069,0,0,-1.8648,-1.8675,-1.8709,-1.8736,-1.8776,-1.8797,-1.8805,-1.8847,-1.8862,-1.8908,-1.892,-1.8951,-1.9013,-1.904,-1.9062,-1.9102,-1.9109,-1.9113,-1.9125,-1.9151,-1.9154,-1.9158,-1.9172,-1.9176,-1.9117,-1.9117,-1.9117,0,-1.8652,-1.8704,-1.8726,-1.8762,-1.8785,-1.8801,-1.8836,-1.8861,-1.891,-1.8926,-1.8922,-1.9,-1.9027,-1.908,-1.909,-1.9107,-1.9117,-1.9108,-1.9152,-1.9156,-1.9159,-1.9173,-1.9178,-1.9117,-1.9117,-1.9117,-1.9117,0,-1.8706,-1.8742,-1.8765,-1.8812,-1.8838,-1.8874,-1.8902,-1.8926,-1.8937,-1.8958,-1.9005,-1.9038,-1.908,-1.9094,-1.9106,-1.9149,-1.9146,-1.9147,-1.9139,-1.9164,-1.9177,-1.9182,-1.9117,-1.9117,-1.9117,-1.9117,0,0,-1.8731,-1.8791,-1.8799,-1.882,-1.8865,-1.8893,-1.893,-1.8971,-1.899,-1.9024,-1.9055,-1.9107,-1.9108,-1.9132,-1.9148,-1.917,-1.92,-1.9168,-1.917,-1.9172,-1.9248,-1.9246,-1.9252,-1.9205,-1.9206,-1.9207,-1.9245,0,-1.8767,-1.8831,-1.8852,-1.8906,-1.8939,-1.8955,-1.8986,-1.9017,-1.9038,-1.907,-1.9093,-1.9129,-1.9128,-1.9143,-1.9166,-1.9191,-1.9215,-1.9189,-1.9233,-1.9235,-1.9222,-1.9259,-1.9258,-1.9291,-1.925,-1.9251,-1.9252,0,-1.8816,-1.885,-1.8907,-1.8947,-1.8962,-1.899,-1.9029,-1.9059,-1.9095,-1.9109,-1.9136,-1.915,-1.9188,-1.9179,-1.9232,-1.9214,-1.9234,-1.9249,-1.9251,-1.9255,-1.9244,-1.9263,-1.9303,-1.9307,-1.926,-1.9259,-1.9259,0,-1.8828,-1.8888,-1.8929,-1.8947,-1.8996,-1.9015,-1.9037,-1.9072,-1.9095,-1.9129,-1.9145,-1.9183,-1.9204,-1.9234,-1.9258,-1.9249,-1.9308,-1.9301,-1.932,-1.932,-1.9331,-1.933,-1.9374,-1.9346,-1.9346,-1.9346,-1.9345,0,-1.8864,-1.8898,-1.8935,-1.8961,-1.8999,-1.9024,-1.9061,-1.9084,-1.9115,-1.9145,-1.9161,-1.9189,-1.9219,-1.9251,-1.927,-1.9311,-1.932,-1.9332,-1.9337,-1.933,-1.9328,-1.9343,-1.9341,-1.9347,-1.9347,-1.9346,-1.9346,0,-1.8883,-1.8909,-1.8956,-1.8998,-1.901,-1.9036,-1.9072,-1.9098,-1.9119,-1.9157,-1.9168,-1.9202,-1.924,-1.9267,-1.9317,-1.933,-1.9373,-1.9378,-1.9361,-1.9363,-1.938,-1.9378,-1.9433,-1.9442,-1.9409,-1.9409,-1.9409,0,-1.8904,-1.893,-1.8975,-1.8996,-1.9018,-1.9052,-1.9075,-1.9101,-1.9125,-1.9168,-1.9188,-1.9228,-1.926,-1.9321,-1.935,-1.9388,-1.9394,-1.9411,-1.9399,-1.9392,-1.9393,-1.939,-1.9393,-1.9412,-1.9412,-1.9412,-1.9412,0,-1.8938,-1.895,-1.8983,-1.9021,-1.9048,-1.908,-1.9111,-1.9128,-1.9159,-1.9185,-1.9224,-1.925,-1.93,-1.9339,-1.938,-1.9402,-1.9412,-1.9416,-1.9422,-1.9415,-1.9404,-1.9409,-1.9364,-1.9414,-1.9414,-1.9414,-1.9414,-1.9414,-1.8958,-1.8982,-1.9017,-1.9054,-1.908,-1.9109,-1.9135,-1.9159,-1.9193,-1.9235,-1.9249,-1.9289,-1.9325,-1.9381,-1.9403,-1.9436,-1.9435,-1.9444,-1.9446,-1.9448,-1.9447,-1.9399,-1.9443,-1.9443,-1.9443,-1.9443,-1.9443,0,-1.8992,-1.9015,-1.9049,-1.9092,-1.9121,-1.9128,-1.9163,-1.9187,-1.9222,-1.9254,-1.9286,-1.9331,-1.9369,-1.9401,-1.9441,-1.946,-1.9466,-1.947,-1.9468,-1.9473,-1.9446,-1.9436,-1.9464,-1.9464,-1.9464,-1.9464,-1.9464,-1.9464,-1.9013,-1.9053,-1.9069,-1.9123,-1.9147,-1.9186,-1.9206,-1.9233,-1.9258,-1.9308,-1.9339,-1.936,-1.9392,-1.9434,-1.9469,-1.9477,-1.9491,-1.9493,-1.9503,-1.9477,-1.9475,-1.9472,-1.9463,-1.9496,-1.9496,-1.9526,-1.9527,-1.9527]}]]